Location: Brantley
(31.5822°N, 86.2569°W)
Time: 02:25:50
(UTC+00:00)

Courier 1B Rocket - Pass Details

Date: 25 February 2026
Orbit: 920 x 1201 km, 28.2° (Epoch: 13 March)

Event Time Altitude Azimuth Distance (km) Brightness Sun altitude
Rises 00:29:21 0° 267° (W) 3,578 10.2 -11.4°
Reaches altitude 10° 00:32:00 10° 264° (W) 2,617 8.8 -12.0°
Maximum altitude 00:38:11 64° 184° (S) 1,006 5.1 -13.3°
Enters shadow 00:42:51 18° 107° (ESE) 2,093 6.2 -14.3°
Drops below altitude 10° 00:44:22 10° 104° (ESE) 2,626 - -14.6°
Sets 00:47:02 0° 101° (ESE) 3,591 - -15.2°
